Weather History for KBVS - October, 2011

Change the Weather History Date:

Friday, October 14, 2011

  Actual Average Record
Temperature  
Mean Temperature 48 °F -  
Max Temperature 53 °F 59 °F 93 °F (2014)
Min Temperature 44 °F 41 °F 28 °F (1969)
Degree Days  
Heating Degree Days 16    
Moisture  
Dew Point 46 °F    
Average Humidity 91    
Maximum Humidity 100    
Minimum Humidity 72    
Precipitation  
Precipitation 0.00 in - - ()
Sea Level Pressure  
Sea Level Pressure 30.04 in    
Wind  
Wind Speed 4 mph (NW)    
Max Wind Speed 9 mph    
Max Gust Speed -    
Visibility 9 miles    
Events      
Averages and records for this station are not official NWS values.
T = Trace of Precipitation, MM = Missing Value Source: NWS Daily Summary

Daily Weather History Graph

Daily Weather History Graph

Search for Another Location

Airport or City:

Trip Planner

Search our weather history database for the weather conditions in past years. The results will help you decide how hot, cold, wet, or windy it might be!

Date:

Astronomy

Oct. 14, 2011 Rise Set
Actual Time 7:27 AM PDT 6:22 PM PDT
Civil Twilight 6:56 AM PDT 6:54 PM PDT
Nautical Twilight 6:20 AM PDT 7:30 PM PDT
Astronomical Twilight 5:43 AM PDT 8:06 PM PDT
Moon 7:21 PM PDT (10/14) 10:19 AM PDT (10/14)
Length of Visible Light 11h 57m
Length of Day
10h 54m
Waning Gibbous, 94% of the Moon is Illuminated
Oct 14
Waning Gibbous
Oct 19
Last Quarter
Oct 26
New
Nov 2
First Quarter
Nov 10
Full

Hourly Weather History & Observations

Time (PDT) Temp. Windchill Dew Point Humidity Pressure Visibility Wind Dir Wind Speed Gust Speed Precip Events Conditions
12:15 AM 46.4 °F 45.2 °F 46.4 °F 100% 30.07 in 10.0 mi NNW 3.5 mph - 0.00 in   Clear
12:35 AM 46.4 °F 44.3 °F 46.4 °F 100% 30.07 in 10.0 mi NW 4.6 mph - 0.00 in   Clear
12:55 AM 46.4 °F - 46.4 °F 100% 30.08 in 9.0 mi Calm Calm - 0.00 in   Clear
1:15 AM 46.4 °F 45.2 °F 46.4 °F 100% 30.07 in 8.0 mi NNW 3.5 mph - 0.00 in   Clear
1:35 AM 46.4 °F - 46.4 °F 100% 30.07 in 8.0 mi Calm Calm - 0.00 in   Clear
1:55 AM 44.6 °F - 44.6 °F 100% 30.06 in 7.0 mi Calm Calm - 0.00 in   Clear
2:15 AM 44.6 °F - 44.6 °F 100% 30.06 in 8.0 mi Calm Calm - 0.00 in   Clear
2:35 AM 44.6 °F 43.1 °F 44.6 °F 100% 30.06 in 7.0 mi North 3.5 mph - 0.00 in   Clear
2:55 AM 46.4 °F 45.2 °F 46.4 °F 100% 30.06 in 9.0 mi NNE 3.5 mph - 0.00 in   Clear
3:15 AM 46.4 °F - 46.4 °F 100% 30.05 in 9.0 mi Calm Calm - 0.00 in   Clear
3:35 AM 44.6 °F - 44.6 °F 100% 30.05 in 9.0 mi Calm Calm - 0.00 in   Clear
3:55 AM 44.6 °F 43.1 °F 44.6 °F 100% 30.04 in 8.0 mi NNW 3.5 mph - 0.00 in   Partly Cloudy
4:15 AM 46.4 °F 42.9 °F 46.4 °F 100% 30.05 in 10.0 mi WNW 6.9 mph - 0.00 in   Mostly Cloudy
4:35 AM 46.4 °F 43.5 °F 46.4 °F 100% 30.05 in 8.0 mi NW 5.8 mph - 0.00 in   Overcast
4:55 AM 46.4 °F - 46.4 °F 100% 30.04 in 7.0 mi Calm Calm - 0.00 in   Overcast
5:15 AM 46.4 °F 43.5 °F 46.4 °F 100% 30.03 in 5.0 mi NNW 5.8 mph - 0.00 in   Overcast
5:35 AM 46.4 °F - 46.4 °F 100% 30.03 in 5.0 mi Calm Calm - 0.00 in   Overcast
5:55 AM 46.4 °F 44.3 °F 46.4 °F 100% 30.03 in 6.0 mi NNW 4.6 mph - 0.00 in   Overcast
6:15 AM 46.4 °F 43.5 °F 46.4 °F 100% 30.03 in 8.0 mi NNW 5.8 mph - 0.00 in   Overcast
6:35 AM 46.4 °F 42.4 °F 46.4 °F 100% 30.04 in 10.0 mi NW 8.1 mph - 0.00 in   Overcast
6:55 AM 46.4 °F 42.9 °F 46.4 °F 100% 30.03 in 10.0 mi NW 6.9 mph - 0.00 in   Scattered Clouds
7:15 AM 46.4 °F 43.5 °F 46.4 °F 100% 30.03 in 10.0 mi NNW 5.8 mph - 0.00 in   Clear
7:35 AM 46.4 °F 42.9 °F 46.4 °F 100% 30.03 in 10.0 mi NNW 6.9 mph - 0.00 in   Clear
7:55 AM 46.4 °F 42.9 °F 44.6 °F 93% 30.04 in 10.0 mi NW 6.9 mph - 0.00 in   Clear
8:15 AM 46.4 °F 43.5 °F 46.4 °F 100% 30.04 in 9.0 mi NW 5.8 mph - 0.00 in   Clear
8:35 AM 46.4 °F 43.5 °F 46.4 °F 100% 30.05 in 9.0 mi NW 5.8 mph - 0.00 in   Clear
8:55 AM 46.4 °F 45.2 °F 46.4 °F 100% 30.04 in 9.0 mi NW 3.5 mph - 0.00 in   Clear
9:15 AM 46.4 °F 45.2 °F 46.4 °F 100% 30.04 in 9.0 mi NNE 3.5 mph - 0.00 in   Clear
9:35 AM 48.2 °F - 46.4 °F 93% 30.05 in 9.0 mi Calm Calm - 0.00 in   Clear
9:55 AM 48.2 °F - 46.4 °F 93% 30.05 in 10.0 mi North 4.6 mph - 0.00 in   Clear
10:15 AM 51.8 °F - 46.4 °F 82% 30.05 in 10.0 mi NNW 4.6 mph - 0.00 in   Clear
10:35 AM 51.8 °F - 46.4 °F 82% 30.06 in 10.0 mi NW 5.8 mph - 0.00 in   Clear
10:55 AM 51.8 °F - 46.4 °F 82% 30.05 in 10.0 mi NNW 5.8 mph - 0.00 in   Clear
11:15 AM 51.8 °F - 46.4 °F 82% 30.05 in 10.0 mi NNW 8.1 mph - 0.00 in   Clear
11:35 AM 51.8 °F - 46.4 °F 82% 30.05 in 10.0 mi NNW 6.9 mph - 0.00 in   Clear
11:55 AM 51.8 °F - 46.4 °F 82% 30.05 in 10.0 mi NW 6.9 mph - 0.00 in   Clear
12:15 PM 51.8 °F - 44.6 °F 76% 30.05 in 10.0 mi NW 5.8 mph - 0.00 in   Clear
12:35 PM 53.6 °F - 46.4 °F 77% 30.05 in 10.0 mi NNW 5.8 mph - 0.00 in   Clear
1:15 PM 53.6 °F - 46.4 °F 77% 30.04 in 10.0 mi NW 5.8 mph - 0.00 in   Clear
1:35 PM 53.6 °F - 46.4 °F 77% 30.03 in 10.0 mi North 4.6 mph - 0.00 in   Clear
1:55 PM 53.6 °F - 44.6 °F 72% 30.02 in 10.0 mi NNW 5.8 mph - 0.00 in   Clear
2:15 PM 53.6 °F - 46.4 °F 77% 30.03 in 10.0 mi NNW 5.8 mph - 0.00 in   Clear
2:35 PM 53.6 °F - 46.4 °F 77% 30.03 in 10.0 mi WNW 4.6 mph - 0.00 in   Clear
2:55 PM 53.6 °F - 46.4 °F 77% 30.03 in 10.0 mi NW 8.1 mph - 0.00 in   Clear
3:15 PM 53.6 °F - 46.4 °F 77% 30.02 in 9.0 mi NW 8.1 mph - 0.00 in   Clear
3:35 PM 53.6 °F - 46.4 °F 77% 30.02 in 10.0 mi NW 8.1 mph - 0.00 in   Clear
3:55 PM 53.6 °F - 46.4 °F 77% 30.02 in 9.0 mi NW 9.2 mph - 0.00 in   Clear
4:15 PM 53.6 °F - 46.4 °F 77% 30.02 in 10.0 mi NW 8.1 mph - 0.00 in   Clear
4:35 PM 53.6 °F - 46.4 °F 77% 30.02 in 10.0 mi NW 6.9 mph - 0.00 in   Clear
4:55 PM 53.6 °F - 46.4 °F 77% 30.02 in 10.0 mi WNW 4.6 mph - 0.00 in   Clear
5:15 PM 51.8 °F - 46.4 °F 82% 30.02 in 10.0 mi WNW 5.8 mph - 0.00 in   Clear
5:35 PM 51.8 °F - 46.4 °F 82% 30.01 in 10.0 mi NW 4.6 mph - 0.00 in   Clear
5:55 PM 50.0 °F - 46.4 °F 87% 30.01 in 10.0 mi NW 4.6 mph - 0.00 in   Clear
6:15 PM 48.2 °F - 46.4 °F 93% 30.01 in 10.0 mi NW 5.8 mph - 0.00 in   Clear
6:35 PM 48.2 °F - 46.4 °F 93% 30.01 in 10.0 mi WNW 4.6 mph - 0.00 in   Clear
6:55 PM 48.2 °F - 46.4 °F 93% 30.01 in 10.0 mi NW 3.5 mph - 0.00 in   Clear
7:35 PM 46.4 °F - 46.4 °F 100% 30.01 in 10.0 mi Calm Calm - 0.00 in   Clear
7:55 PM 44.6 °F - 44.6 °F 100% 30.01 in 10.0 mi Calm Calm - 0.00 in   Clear
8:15 PM 42.8 °F 40.1 °F 42.8 °F 100% 30.01 in 10.0 mi WNW 4.6 mph - 0.00 in   Clear
8:35 PM 44.6 °F 41.4 °F 44.6 °F 100% 30.01 in 10.0 mi WNW 5.8 mph - 0.00 in   Clear
8:55 PM 44.6 °F 40.7 °F 42.8 °F 93% 30.01 in 10.0 mi NW 6.9 mph - 0.00 in   Clear
9:15 PM 44.6 °F 41.4 °F 42.8 °F 93% 30.02 in 10.0 mi NW 5.8 mph - 0.00 in   Clear
9:35 PM 44.6 °F 42.2 °F 44.6 °F 100% 30.02 in 10.0 mi NW 4.6 mph - 0.00 in   Clear
9:55 PM 42.8 °F 41.1 °F 42.8 °F 100% 30.02 in 10.0 mi North 3.5 mph - 0.00 in   Clear
10:15 PM 42.8 °F - 42.8 °F 100% 30.02 in 10.0 mi Calm Calm - 0.00 in   Clear
10:35 PM 42.8 °F 41.1 °F 42.8 °F 100% 30.02 in 10.0 mi NW 3.5 mph - 0.00 in   Clear
10:55 PM 42.8 °F - 42.8 °F 100% 30.03 in 9.0 mi Calm Calm - 0.00 in   Clear
11:15 PM 41.0 °F 39.0 °F 41.0 °F 100% 30.03 in 5.0 mi NW 3.5 mph - 0.00 in   Clear
11:35 PM 39.2 °F 35.9 °F 39.2 °F 100% 30.04 in 5.0 mi NW 4.6 mph - 0.00 in   Clear
11:55 PM 42.8 °F - 42.8 °F 100% 30.04 in 4.0 mi Calm Calm - 0.00 in   Clear